Location: Ash Shall?l al Awwal
(24.0167°N, 32.8667°E)
Time: 19:13:03
(UTC+00:00)

CZ-2C R/B - Pass Details

Date: 02 March 2021
Orbit: 784 x 871 km, 98.2° (Epoch: 09 April)

Event Time Altitude Azimuth Distance (km) Brightness Sun altitude
Rises 16:43:45 0° 12° (NNE) 3,389 5.7 -12.6°
Reaches altitude 10° 16:46:08 10° 12° (NNE) 2,440 5.0 -13.2°
Maximum altitude 16:51:32 89° 94° (E) 821 2.6 -14.4°
Drops below altitude 10° 16:56:48 10° 193° (SSW) 2,374 5.2 -15.6°
Sets 16:59:06 0° 193° (SSW) 3,291 6.0 -16.1°
